Year,Month,Day,Hour,Minute,Value (Times are PST for temperature in C)
2020,01,14,00,00,-4.20
2020,01,14,00,01,-4.20
2020,01,14,00,02,-4.20
2020,01,14,00,03,-4.20
2020,01,14,00,04,-4.20
2020,01,14,00,05,-4.20
2020,01,14,00,06,-4.20
2020,01,14,00,07,-4.20
2020,01,14,00,08,-4.20
2020,01,14,00,09,-4.20
2020,01,14,00,10,-4.20
2020,01,14,00,11,-4.20
2020,01,14,00,12,-4.20
2020,01,14,00,13,-4.20
2020,01,14,00,14,-4.20
2020,01,14,00,15,-4.20
2020,01,14,00,16,-4.20
2020,01,14,00,17,-4.20
2020,01,14,00,18,-4.20
2020,01,14,00,19,-4.20
2020,01,14,00,20,-4.20
2020,01,14,00,21,-4.20
2020,01,14,00,22,-4.20
2020,01,14,00,23,-4.20
2020,01,14,00,24,-4.20
2020,01,14,00,25,-4.20
2020,01,14,00,26,-4.20
2020,01,14,00,27,-4.20
2020,01,14,00,28,-4.20
2020,01,14,00,29,-4.20
2020,01,14,00,30,-4.20
2020,01,14,00,31,-4.20
2020,01,14,00,32,-4.20
2020,01,14,00,33,-4.20
2020,01,14,00,34,-4.20
2020,01,14,00,35,-4.20
2020,01,14,00,36,-4.20
2020,01,14,00,37,-4.20
2020,01,14,00,38,-4.20
2020,01,14,00,39,-4.20
2020,01,14,00,40,-4.20
2020,01,14,00,41,-4.20
2020,01,14,00,42,-4.20
2020,01,14,00,43,-4.20
2020,01,14,00,44,-4.20
2020,01,14,00,45,-4.20
2020,01,14,00,46,-4.20
2020,01,14,00,47,-4.20
2020,01,14,00,48,-4.20
2020,01,14,00,49,-4.20
2020,01,14,00,50,-4.20
2020,01,14,00,51,-4.20
2020,01,14,00,52,-4.20
2020,01,14,00,53,-4.20
2020,01,14,00,54,-4.20
2020,01,14,00,55,-4.20
2020,01,14,00,56,-4.20
2020,01,14,00,57,-4.20
2020,01,14,00,58,-4.20
2020,01,14,00,59,-4.20
2020,01,14,01,00,-4.20
2020,01,14,01,01,-4.20
2020,01,14,01,02,-4.20
2020,01,14,01,03,-4.20
2020,01,14,01,04,-4.20
2020,01,14,01,05,-4.20
2020,01,14,01,06,-4.20
2020,01,14,01,07,-4.20
2020,01,14,01,08,-4.20
2020,01,14,01,09,-4.20
2020,01,14,01,10,-4.20
2020,01,14,01,11,-4.20
2020,01,14,01,12,-4.20
2020,01,14,01,13,-4.20
2020,01,14,01,14,-4.20
2020,01,14,01,15,-4.20
2020,01,14,01,16,-4.20
2020,01,14,01,17,-4.20
2020,01,14,01,18,-4.20
2020,01,14,01,19,-4.20
2020,01,14,01,20,-4.20
2020,01,14,01,21,-4.20
2020,01,14,01,22,-4.20
2020,01,14,01,23,-4.20
2020,01,14,01,24,-4.20
2020,01,14,01,25,-4.20
2020,01,14,01,26,-4.20
2020,01,14,01,27,-4.20
2020,01,14,01,28,-4.20
2020,01,14,01,29,-4.20
2020,01,14,01,30,-4.20
2020,01,14,01,31,-4.20
2020,01,14,01,32,-4.20
2020,01,14,01,33,-4.20
2020,01,14,01,34,-4.20
2020,01,14,01,35,-4.20
2020,01,14,01,36,-4.20
2020,01,14,01,37,-4.20
2020,01,14,01,38,-4.20
2020,01,14,01,39,-4.20
2020,01,14,01,40,-4.20
2020,01,14,01,41,-4.30
2020,01,14,01,42,-4.30
2020,01,14,01,43,-4.30
2020,01,14,01,44,-4.30
2020,01,14,01,45,-4.30
2020,01,14,01,46,-4.30
2020,01,14,01,47,-4.30
2020,01,14,01,48,-4.30
2020,01,14,01,49,-4.30
2020,01,14,01,50,-4.30
2020,01,14,01,51,-4.30
2020,01,14,01,52,-4.30
2020,01,14,01,53,-4.30
2020,01,14,01,54,-4.30
2020,01,14,01,55,-4.30
2020,01,14,01,56,-4.30
2020,01,14,01,57,-4.30
2020,01,14,01,58,-4.30
2020,01,14,01,59,-4.30
2020,01,14,02,00,-4.30
2020,01,14,02,01,-4.30
2020,01,14,02,02,-4.30
2020,01,14,02,03,-4.30
2020,01,14,02,04,-4.30
2020,01,14,02,05,-4.30
2020,01,14,02,06,-4.30
2020,01,14,02,07,-4.30
2020,01,14,02,08,-4.30
2020,01,14,02,09,-4.30
2020,01,14,02,10,-4.40
2020,01,14,02,11,-4.40
2020,01,14,02,12,-4.40
2020,01,14,02,13,-4.40
2020,01,14,02,14,-4.40
2020,01,14,02,15,-4.40
2020,01,14,02,16,-4.40
2020,01,14,02,17,-4.40
2020,01,14,02,18,-4.40
2020,01,14,02,19,-4.40
2020,01,14,02,20,-4.40
2020,01,14,02,21,-4.40
2020,01,14,02,22,-4.40
2020,01,14,02,23,-4.40
2020,01,14,02,24,-4.40
2020,01,14,02,25,-4.40
2020,01,14,02,26,-4.40
2020,01,14,02,27,-4.40
2020,01,14,02,28,-4.40
2020,01,14,02,29,-4.40
2020,01,14,02,30,-4.40
2020,01,14,02,31,-4.40
2020,01,14,02,32,-4.40
2020,01,14,02,33,-4.40
2020,01,14,09,37,-4.30
2020,01,14,09,38,-4.30
2020,01,14,09,39,-4.30
2020,01,14,09,40,-4.30
2020,01,14,09,41,-4.30
2020,01,14,09,42,-4.30
2020,01,14,09,43,-4.30
2020,01,14,09,44,-4.30
2020,01,14,09,45,-4.30
2020,01,14,09,46,-4.30
2020,01,14,09,47,-4.30
2020,01,14,09,48,-4.20
2020,01,14,09,49,-4.20
2020,01,14,09,50,-4.20
2020,01,14,09,51,-4.20
2020,01,14,09,52,-4.20
2020,01,14,09,53,-4.20
2020,01,14,09,54,-4.20
2020,01,14,09,55,-4.20
2020,01,14,09,56,-4.20
2020,01,14,09,57,-4.20
2020,01,14,09,58,-4.20
2020,01,14,09,59,-4.20
2020,01,14,10,00,-4.20
2020,01,14,10,01,-4.20
2020,01,14,10,02,-4.20
2020,01,14,10,03,-4.20
2020,01,14,10,04,-4.20
2020,01,14,10,05,-4.20
2020,01,14,10,06,-4.20
2020,01,14,10,07,-4.10
2020,01,14,10,08,-4.10
2020,01,14,10,09,-4.10
2020,01,14,10,10,-4.10
2020,01,14,10,11,-4.10
2020,01,14,10,12,-4.10
2020,01,14,10,13,-4.10
2020,01,14,10,14,-4.10
2020,01,14,10,15,-4.10
2020,01,14,10,16,-4.00
2020,01,14,10,17,-4.00
2020,01,14,10,18,-4.00
2020,01,14,10,19,-4.00
2020,01,14,10,20,-4.00
2020,01,14,10,21,-4.00
2020,01,14,10,22,-4.00
2020,01,14,10,23,-4.00
2020,01,14,10,24,-4.10
2020,01,14,10,25,-4.10
2020,01,14,10,26,-4.10
2020,01,14,10,27,-4.10
2020,01,14,10,28,-4.10
2020,01,14,10,29,-4.00
2020,01,14,10,30,-4.00
2020,01,14,10,31,-4.00
2020,01,14,10,32,-3.90
2020,01,14,10,33,-3.90
2020,01,14,10,34,-3.90
2020,01,14,10,35,-3.90
2020,01,14,10,36,-3.80
2020,01,14,10,37,-3.80
2020,01,14,10,38,-3.80
2020,01,14,10,39,-3.80
2020,01,14,10,40,-3.80
2020,01,14,10,41,-3.80
2020,01,14,10,42,-3.80
2020,01,14,10,43,-3.80
2020,01,14,10,44,-3.80
2020,01,14,10,45,-3.80
2020,01,14,10,46,-3.80
2020,01,14,10,47,-3.80
2020,01,14,10,48,-3.80
2020,01,14,10,49,-3.80
2020,01,14,10,50,-3.80
2020,01,14,10,51,-3.80
2020,01,14,10,52,-3.80
2020,01,14,10,53,-3.80
2020,01,14,10,54,-3.80
2020,01,14,10,55,-3.80
2020,01,14,10,56,-3.80
2020,01,14,10,57,-3.80
2020,01,14,10,58,-3.90
2020,01,14,10,59,-3.90
2020,01,14,11,00,-3.90
2020,01,14,11,01,-3.90
2020,01,14,11,02,-3.90
2020,01,14,11,03,-3.90
2020,01,14,11,04,-3.90
2020,01,14,11,05,-3.90
2020,01,14,11,06,-3.90
2020,01,14,11,07,-4.00
2020,01,14,11,08,-3.90
2020,01,14,11,09,-3.90
2020,01,14,11,10,-3.90
2020,01,14,11,11,-3.90
2020,01,14,11,12,-3.90
2020,01,14,11,13,-3.90
2020,01,14,11,14,-4.00
2020,01,14,11,15,-3.90
2020,01,14,11,16,-4.00
2020,01,14,11,17,-4.00
2020,01,14,11,18,-3.90
2020,01,14,11,19,-3.90
2020,01,14,11,20,-3.90
2020,01,14,11,21,-3.90
2020,01,14,11,22,-3.90
2020,01,14,11,23,-3.90
2020,01,14,11,24,-3.90
2020,01,14,11,25,-3.90
2020,01,14,11,26,-3.90
2020,01,14,11,27,-3.90
2020,01,14,11,28,-4.00
2020,01,14,11,29,-4.00
2020,01,14,11,30,-4.00
2020,01,14,11,31,-4.00
2020,01,14,11,32,-4.10
2020,01,14,11,33,-4.10
2020,01,14,11,34,-4.10
2020,01,14,11,35,-4.10
2020,01,14,11,36,-4.10
2020,01,14,11,37,-4.10
2020,01,14,11,38,-4.10
2020,01,14,11,39,-4.10
2020,01,14,11,40,-4.10
2020,01,14,11,41,-4.10
2020,01,14,11,42,-4.10
2020,01,14,11,43,-4.10
2020,01,14,11,44,-4.10
2020,01,14,11,45,-4.10
2020,01,14,11,46,-4.10
2020,01,14,11,47,-4.10
2020,01,14,11,48,-4.10
2020,01,14,11,49,-4.10
2020,01,14,11,50,-4.10
2020,01,14,11,51,-4.10
2020,01,14,11,52,-4.10
2020,01,14,11,53,-4.10
2020,01,14,11,54,-4.10
2020,01,14,11,55,-4.00
2020,01,14,11,56,-4.00
2020,01,14,11,57,-4.00
2020,01,14,11,58,-4.00
2020,01,14,11,59,-3.90
2020,01,14,12,00,-3.90
2020,01,14,12,01,-3.90
2020,01,14,12,02,-4.00
2020,01,14,12,03,-4.00
2020,01,14,12,04,-4.00
2020,01,14,12,05,-4.00
2020,01,14,12,06,-4.00
2020,01,14,12,07,-4.00
2020,01,14,12,08,-4.10
2020,01,14,12,09,-4.10
2020,01,14,12,10,-4.10
2020,01,14,12,11,-4.10
2020,01,14,12,12,-4.10
2020,01,14,12,13,-4.00
2020,01,14,12,14,-4.00
2020,01,14,12,15,-4.00
2020,01,14,12,16,-4.00
2020,01,14,12,17,-4.00
2020,01,14,12,18,-4.00
2020,01,14,12,19,-4.00
2020,01,14,12,20,-4.00
2020,01,14,12,21,-4.00
2020,01,14,12,22,-4.00
2020,01,14,12,23,-4.00
2020,01,14,12,24,-4.00
2020,01,14,12,25,-4.00
2020,01,14,12,26,-4.00
2020,01,14,12,27,-4.10
2020,01,14,12,28,-4.10
2020,01,14,12,29,-4.10
2020,01,14,12,30,-4.10
2020,01,14,12,31,-4.00
2020,01,14,12,32,-4.00
2020,01,14,12,33,-4.00
2020,01,14,12,34,-4.00
2020,01,14,12,35,-4.10
2020,01,14,12,36,-4.00
2020,01,14,12,37,-4.00
2020,01,14,12,38,-4.00
2020,01,14,12,39,-4.00
2020,01,14,12,40,-4.00
2020,01,14,12,41,-4.00
2020,01,14,12,42,-4.00
2020,01,14,12,43,-4.00
2020,01,14,12,44,-4.00
2020,01,14,12,45,-3.90
2020,01,14,12,46,-3.90
2020,01,14,12,47,-3.90
2020,01,14,12,48,-3.90
2020,01,14,12,49,-3.90
2020,01,14,12,50,-3.90
2020,01,14,12,51,-3.90
2020,01,14,12,52,-3.90
2020,01,14,12,53,-3.90
2020,01,14,12,54,-3.90
2020,01,14,12,55,-3.90
2020,01,14,12,56,-3.90
2020,01,14,12,57,-3.80
2020,01,14,12,58,-3.90
2020,01,14,12,59,-3.90
2020,01,14,13,00,-3.90
2020,01,14,13,01,-3.90
2020,01,14,13,02,-3.90
2020,01,14,13,03,-3.90
2020,01,14,13,04,-3.90
2020,01,14,13,05,-3.90
2020,01,14,13,06,-3.90
2020,01,14,13,07,-3.90
2020,01,14,13,08,-3.90
2020,01,14,13,09,-3.90
2020,01,14,13,10,-3.90
2020,01,14,13,11,-3.90
2020,01,14,13,12,-3.90
2020,01,14,13,13,-3.90
2020,01,14,13,14,-3.90
2020,01,14,13,15,-3.90
2020,01,14,13,16,-3.90
2020,01,14,13,17,-3.90
2020,01,14,13,18,-3.90
2020,01,14,13,19,-3.90
2020,01,14,13,20,-3.80
2020,01,14,13,21,-3.80
2020,01,14,13,22,-3.80
2020,01,14,13,23,-3.80
2020,01,14,13,24,-3.80
2020,01,14,13,25,-3.80
2020,01,14,13,26,-3.80
2020,01,14,13,27,-3.80
2020,01,14,13,28,-3.80
2020,01,14,13,29,-3.80
2020,01,14,13,30,-3.80
2020,01,14,13,31,-3.80
2020,01,14,13,32,-3.80
2020,01,14,13,33,-3.80
2020,01,14,13,34,-3.80
2020,01,14,13,35,-3.80
2020,01,14,13,36,-3.70
2020,01,14,13,37,-3.70
2020,01,14,13,38,-3.70
2020,01,14,13,39,-3.70
2020,01,14,13,40,-3.70
2020,01,14,13,41,-3.70
2020,01,14,13,42,-3.60
2020,01,14,13,43,-3.60
2020,01,14,13,44,-3.60
2020,01,14,13,45,-3.60
2020,01,14,13,46,-3.60
2020,01,14,13,47,-3.60
2020,01,14,13,48,-3.60
2020,01,14,13,49,-3.60
2020,01,14,13,50,-3.60
2020,01,14,13,51,-3.60
2020,01,14,13,52,-3.60
2020,01,14,13,53,-3.60
2020,01,14,13,54,-3.60
2020,01,14,13,55,-3.60
2020,01,14,13,56,-3.60
2020,01,14,13,57,-3.60
2020,01,14,13,58,-3.50
2020,01,14,13,59,-3.50
2020,01,14,14,00,-3.50
2020,01,14,14,01,-3.40
2020,01,14,14,02,-3.40
2020,01,14,14,03,-3.40
2020,01,14,14,04,-3.40
2020,01,14,14,05,-3.30
2020,01,14,14,06,-3.30
2020,01,14,14,07,-3.30
2020,01,14,14,08,-3.30
2020,01,14,14,09,-3.30
2020,01,14,14,10,-3.30
2020,01,14,14,11,-3.30
2020,01,14,14,12,-3.30
2020,01,14,14,13,-3.30
2020,01,14,14,14,-3.30
2020,01,14,14,15,-3.30
2020,01,14,14,16,-3.20
2020,01,14,14,17,-3.20
2020,01,14,14,18,-3.20
2020,01,14,14,19,-3.20
2020,01,14,14,20,-3.20
2020,01,14,14,21,-3.20
2020,01,14,14,22,-3.20
2020,01,14,14,23,-3.20
2020,01,14,14,24,-3.20
2020,01,14,14,25,-3.20
2020,01,14,14,26,-3.20
2020,01,14,14,27,-3.10
2020,01,14,14,28,-3.10
2020,01,14,14,29,-3.10
2020,01,14,14,30,-3.10
2020,01,14,14,31,-3.10
2020,01,14,14,32,-3.00
2020,01,14,14,33,-3.00
2020,01,14,14,34,-3.00
2020,01,14,14,35,-3.00
2020,01,14,14,36,-2.90
2020,01,14,14,37,-2.90
2020,01,14,14,38,-2.90
2020,01,14,14,39,-2.90
2020,01,14,14,40,-2.90
2020,01,14,14,41,-2.90
2020,01,14,14,42,-2.90
2020,01,14,14,43,-2.90
2020,01,14,14,44,-2.80
2020,01,14,14,45,-2.80
2020,01,14,14,46,-2.80
2020,01,14,14,47,-2.80
2020,01,14,14,48,-2.80
2020,01,14,14,49,-2.80
2020,01,14,14,50,-2.80
2020,01,14,14,51,-2.80
2020,01,14,14,52,-2.80
2020,01,14,14,53,-2.80
2020,01,14,14,54,-2.80
2020,01,14,14,55,-2.80
2020,01,14,14,56,-2.80
2020,01,14,14,57,-2.70
2020,01,14,14,58,-2.70
2020,01,14,14,59,-2.70
2020,01,14,15,00,-2.70
2020,01,14,15,01,-2.70
2020,01,14,15,02,-2.70
2020,01,14,15,03,-2.70
2020,01,14,15,04,-2.80
2020,01,14,15,05,-2.80
2020,01,14,15,06,-2.80
2020,01,14,15,07,-2.80
2020,01,14,15,08,-2.80
2020,01,14,15,09,-2.80
2020,01,14,15,10,-2.80
2020,01,14,15,11,-2.80
2020,01,14,15,12,-2.90
2020,01,14,15,13,-2.90
2020,01,14,15,14,-2.90
2020,01,14,15,15,-2.90
2020,01,14,15,16,-2.90
2020,01,14,15,17,-2.90
2020,01,14,15,18,-2.90
2020,01,14,15,19,-2.90
2020,01,14,15,20,-2.90
2020,01,14,15,21,-2.90
2020,01,14,15,22,-2.90
2020,01,14,15,23,-2.90
2020,01,14,15,24,-2.90
2020,01,14,15,25,-2.90
2020,01,14,15,26,-2.90
2020,01,14,15,27,-2.90
2020,01,14,15,28,-2.90
2020,01,14,15,29,-2.90
2020,01,14,15,30,-2.90
2020,01,14,15,31,-2.90
2020,01,14,15,32,-2.90
2020,01,14,15,33,-2.90
2020,01,14,15,34,-2.90
2020,01,14,15,35,-2.90
2020,01,14,15,36,-2.90
2020,01,14,15,37,-2.90
2020,01,14,15,38,-2.90
2020,01,14,15,39,-2.90
2020,01,14,15,40,-2.90
2020,01,14,15,41,-2.90
2020,01,14,15,42,-2.90
2020,01,14,15,43,-2.90
2020,01,14,15,44,-2.90
2020,01,14,15,45,-2.90
2020,01,14,15,46,-2.90
2020,01,14,15,47,-2.90
2020,01,14,15,48,-2.90
2020,01,14,15,49,-2.90
2020,01,14,15,50,-2.90
2020,01,14,15,51,-2.90
2020,01,14,15,52,-2.90
2020,01,14,15,53,-2.90
2020,01,14,15,54,-2.90
2020,01,14,15,55,-2.90
2020,01,14,15,56,-2.90
2020,01,14,15,57,-2.90
2020,01,14,15,58,-2.90
2020,01,14,15,59,-2.90
2020,01,14,16,00,-2.90
2020,01,14,16,01,-2.90
2020,01,14,16,02,-2.90
2020,01,14,16,03,-2.90
2020,01,14,16,04,-2.90
2020,01,14,16,05,-2.90
2020,01,14,16,06,-2.90
2020,01,14,16,07,-2.90
2020,01,14,16,08,-2.90
2020,01,14,16,09,-2.90
2020,01,14,16,10,-2.90
2020,01,14,16,11,-2.90
2020,01,14,16,12,-2.90
2020,01,14,16,13,-2.90
2020,01,14,16,14,-2.90
2020,01,14,16,15,-2.90
2020,01,14,16,16,-2.90
2020,01,14,16,17,-2.90
2020,01,14,16,18,-2.90
2020,01,14,16,19,-2.90
2020,01,14,16,20,-2.90
2020,01,14,16,21,-2.90
2020,01,14,16,22,-2.80
2020,01,14,16,23,-2.80
2020,01,14,16,24,-2.80
2020,01,14,16,25,-2.80
2020,01,14,16,26,-2.80
2020,01,14,16,27,-2.80
2020,01,14,16,28,-2.80
2020,01,14,16,29,-2.80
2020,01,14,16,30,-2.80
2020,01,14,16,31,-2.80
2020,01,14,16,32,-2.80
2020,01,14,16,33,-2.80
2020,01,14,16,34,-2.80
2020,01,14,16,35,-2.80
2020,01,14,16,36,-2.80
2020,01,14,16,37,-2.80
2020,01,14,16,38,-2.80
2020,01,14,16,39,-2.80
2020,01,14,16,40,-2.80
2020,01,14,16,41,-2.80
2020,01,14,16,42,-2.80
2020,01,14,16,43,-2.80
2020,01,14,16,44,-2.80
2020,01,14,16,45,-2.80
2020,01,14,16,46,-2.80
2020,01,14,16,47,-2.80
2020,01,14,16,48,-2.80
2020,01,14,16,49,-2.80
2020,01,14,16,50,-2.80
2020,01,14,16,51,-2.80
2020,01,14,16,52,-2.80
2020,01,14,16,53,-2.80
2020,01,14,16,54,-2.90
2020,01,14,16,55,-2.90
2020,01,14,16,56,-2.90
2020,01,14,16,57,-2.90
2020,01,14,16,58,-2.90
2020,01,14,16,59,-2.90
2020,01,14,17,00,-2.90
2020,01,14,17,01,-2.80
2020,01,14,17,02,-2.80
2020,01,14,17,03,-2.80
2020,01,14,17,04,-2.80
2020,01,14,17,05,-2.90
2020,01,14,17,06,-2.90
2020,01,14,17,07,-2.90
2020,01,14,17,08,-2.90
2020,01,14,17,09,-2.90
2020,01,14,17,10,-2.90
2020,01,14,17,11,-2.80
2020,01,14,17,12,-2.90
2020,01,14,17,13,-2.90
2020,01,14,17,14,-2.90
2020,01,14,17,15,-2.90
2020,01,14,17,16,-2.90
2020,01,14,17,17,-2.90
2020,01,14,17,18,-2.90
2020,01,14,17,19,-2.90
2020,01,14,17,20,-2.90
2020,01,14,17,21,-2.90
2020,01,14,17,22,-2.90
2020,01,14,17,23,-2.90
2020,01,14,17,24,-2.90
2020,01,14,17,25,-2.90
2020,01,14,17,26,-2.90
2020,01,14,17,27,-2.90
2020,01,14,17,28,-2.90
2020,01,14,17,29,-2.90
2020,01,14,17,30,-2.90
2020,01,14,17,31,-2.90
2020,01,14,17,32,-2.90
2020,01,14,17,33,-2.90
2020,01,14,17,34,-2.90
2020,01,14,17,35,-2.90
2020,01,14,17,36,-2.90
2020,01,14,17,37,-2.90
2020,01,14,17,38,-2.90
2020,01,14,17,39,-2.90
2020,01,14,17,40,-2.90
2020,01,14,17,41,-2.90
2020,01,14,17,42,-2.90
2020,01,14,17,43,-2.90
2020,01,14,17,44,-2.90
2020,01,14,17,45,-2.90
2020,01,14,17,46,-2.90
2020,01,14,17,47,-2.90
2020,01,14,17,48,-2.90
2020,01,14,17,49,-2.90
2020,01,14,17,50,-2.90
2020,01,14,17,51,-2.90
2020,01,14,17,52,-2.90
2020,01,14,17,53,-2.90
2020,01,14,17,54,-2.90
2020,01,14,17,55,-2.90
2020,01,14,17,56,-2.90
2020,01,14,17,57,-2.90
2020,01,14,17,58,-2.90
2020,01,14,17,59,-2.90
2020,01,14,18,00,-2.90
2020,01,14,18,01,-2.90
2020,01,14,18,02,-2.90
2020,01,14,18,03,-2.90
2020,01,14,18,04,-2.90
2020,01,14,18,05,-2.90
2020,01,14,18,06,-2.90
2020,01,14,18,07,-2.90
2020,01,14,18,08,-2.90
2020,01,14,18,09,-2.80
2020,01,14,18,10,-2.90
2020,01,14,18,11,-2.90
2020,01,14,18,12,-2.90
2020,01,14,18,13,-2.90
2020,01,14,18,14,-2.90
2020,01,14,18,15,-2.90
2020,01,14,18,16,-2.90
2020,01,14,18,17,-2.90
2020,01,14,18,18,-2.90
2020,01,14,18,19,-2.90
2020,01,14,18,20,-2.90
2020,01,14,18,21,-2.90
2020,01,14,18,22,-2.90
2020,01,14,18,23,-2.90
2020,01,14,18,24,-2.90
2020,01,14,18,25,-2.90
2020,01,14,18,26,-2.90
2020,01,14,18,27,-2.90
2020,01,14,18,28,-2.90
2020,01,14,18,29,-2.90
2020,01,14,18,30,-2.90
2020,01,14,18,31,-2.90
2020,01,14,18,32,-2.80
2020,01,14,18,33,-2.80
2020,01,14,18,34,-2.80
2020,01,14,18,35,-2.80
2020,01,14,18,36,-2.80
2020,01,14,18,37,-2.80
2020,01,14,18,38,-2.80
2020,01,14,18,39,-2.80
2020,01,14,18,40,-2.80
2020,01,14,18,41,-2.80
2020,01,14,18,42,-2.80
2020,01,14,18,43,-2.80
2020,01,14,18,44,-2.80
2020,01,14,18,45,-2.80
2020,01,14,18,46,-2.80
2020,01,14,18,47,-2.80
2020,01,14,18,48,-2.80
2020,01,14,18,49,-2.80
2020,01,14,18,50,-2.80
2020,01,14,18,51,-2.70
2020,01,14,18,52,-2.70
2020,01,14,18,53,-2.70
2020,01,14,18,54,-2.70
2020,01,14,18,55,-2.70
2020,01,14,18,56,-2.70
2020,01,14,18,57,-2.70
2020,01,14,18,58,-2.70
2020,01,14,18,59,-2.70
2020,01,14,19,00,-2.70
2020,01,14,19,01,-2.70
2020,01,14,19,02,-2.70
2020,01,14,19,03,-2.70
2020,01,14,19,04,-2.70
2020,01,14,19,05,-2.70
2020,01,14,19,06,-2.70
2020,01,14,19,07,-2.70
2020,01,14,19,08,-2.70
2020,01,14,19,09,-2.70
2020,01,14,19,10,-2.70
2020,01,14,19,11,-2.70
2020,01,14,19,12,-2.70
2020,01,14,19,13,-2.60
2020,01,14,19,14,-2.60
2020,01,14,19,15,-2.60
2020,01,14,19,16,-2.60
2020,01,14,19,17,-2.60
2020,01,14,19,18,-2.60
2020,01,14,19,19,-2.60
2020,01,14,19,20,-2.60
2020,01,14,19,21,-2.60
2020,01,14,19,22,-2.60
2020,01,14,19,23,-2.50
2020,01,14,19,24,-2.50
2020,01,14,19,25,-2.50
2020,01,14,19,26,-2.50
2020,01,14,19,27,-2.50
2020,01,14,19,28,-2.50
2020,01,14,19,29,-2.50
2020,01,14,19,30,-2.50
2020,01,14,19,31,-2.50
2020,01,14,19,32,-2.50
2020,01,14,19,33,-2.40
2020,01,14,19,34,-2.40
2020,01,14,19,35,-2.40
2020,01,14,19,36,-2.40
2020,01,14,19,37,-2.40
2020,01,14,19,38,-2.40
2020,01,14,19,39,-2.30
2020,01,14,19,40,-2.30
2020,01,14,19,41,-2.30
2020,01,14,19,42,-2.30
2020,01,14,19,43,-2.30
2020,01,14,19,44,-2.30
2020,01,14,19,45,-2.20
2020,01,14,19,46,-2.20
2020,01,14,19,47,-2.20
2020,01,14,19,48,-2.20
2020,01,14,19,49,-2.20
2020,01,14,19,50,-2.20
2020,01,14,19,51,-2.10
2020,01,14,19,52,-2.10
2020,01,14,19,53,-2.10
2020,01,14,19,54,-2.10
2020,01,14,19,55,-2.10
2020,01,14,19,56,-2.10
2020,01,14,19,57,-2.10
2020,01,14,19,58,-2.10
2020,01,14,19,59,-2.10
2020,01,14,20,00,-2.10
2020,01,14,20,01,-2.10
2020,01,14,20,02,-2.10
2020,01,14,20,03,-2.10
2020,01,14,20,04,-2.10
2020,01,14,20,05,-2.10
2020,01,14,20,06,-2.00
2020,01,14,20,07,-2.00
2020,01,14,20,08,-2.00
2020,01,14,20,09,-2.00
2020,01,14,20,10,-2.00
2020,01,14,20,11,-2.00
2020,01,14,20,12,-2.00
2020,01,14,20,13,-2.00
2020,01,14,20,14,-2.00
2020,01,14,20,15,-2.00
2020,01,14,20,16,-2.00
2020,01,14,20,17,-2.00
2020,01,14,20,18,-2.00
2020,01,14,20,19,-2.00
2020,01,14,20,20,-2.00
2020,01,14,20,21,-2.00
2020,01,14,20,22,-2.00
2020,01,14,20,23,-2.00
2020,01,14,20,24,-2.00
2020,01,14,20,25,-2.00
2020,01,14,20,26,-2.00
2020,01,14,20,27,-2.00
2020,01,14,20,28,-2.00
2020,01,14,20,29,-1.90
2020,01,14,20,30,-1.90
2020,01,14,20,31,-1.90
2020,01,14,20,32,-1.90
2020,01,14,20,33,-1.90
2020,01,14,20,34,-1.90
2020,01,14,20,35,-1.90
2020,01,14,20,36,-1.90
2020,01,14,20,37,-1.90
2020,01,14,20,38,-1.90
2020,01,14,20,39,-1.90
2020,01,14,20,40,-1.90
2020,01,14,20,41,-1.90
2020,01,14,20,42,-1.80
2020,01,14,20,43,-1.80
2020,01,14,20,44,-1.80
2020,01,14,20,45,-1.90
2020,01,14,20,46,-1.90
2020,01,14,20,47,-1.90
2020,01,14,20,48,-2.00
2020,01,14,20,49,-2.10
2020,01,14,20,50,-2.10
2020,01,14,20,51,-2.10
2020,01,14,20,52,-2.10
2020,01,14,20,53,-2.20
2020,01,14,20,54,-2.20
2020,01,14,20,55,-2.20
2020,01,14,20,56,-2.20
2020,01,14,20,57,-2.20
2020,01,14,20,58,-2.20
2020,01,14,20,59,-2.20
2020,01,14,21,00,-2.30
2020,01,14,21,01,-2.30
2020,01,14,21,02,-2.30
2020,01,14,21,03,-2.30
2020,01,14,21,04,-2.30
2020,01,14,21,05,-2.30
2020,01,14,21,06,-2.30
2020,01,14,21,07,-2.30
2020,01,14,21,08,-2.30
2020,01,14,21,09,-2.30
2020,01,14,21,10,-2.30
2020,01,14,21,11,-2.30
2020,01,14,21,12,-2.30
2020,01,14,21,13,-2.30
2020,01,14,21,14,-2.30
2020,01,14,21,15,-2.30
2020,01,14,21,16,-2.30
2020,01,14,21,17,-2.30
2020,01,14,21,18,-2.30
2020,01,14,21,19,-2.30
2020,01,14,21,20,-2.40
2020,01,14,21,21,-2.30
2020,01,14,21,22,-2.30
2020,01,14,21,23,-2.30
2020,01,14,21,24,-2.30
2020,01,14,21,25,-2.30
2020,01,14,21,26,-2.30
2020,01,14,21,27,-2.30
2020,01,14,21,28,-2.30
2020,01,14,21,29,-2.30
2020,01,14,21,30,-2.30
2020,01,14,21,31,-2.30
2020,01,14,21,32,-2.30
2020,01,14,21,33,-2.30
2020,01,14,21,34,-2.30
2020,01,14,21,35,-2.30
2020,01,14,21,36,-2.30
2020,01,14,21,37,-2.30
2020,01,14,21,38,-2.30
2020,01,14,21,39,-2.30
2020,01,14,21,40,-2.30
2020,01,14,21,41,-2.30
2020,01,14,21,42,-2.20
2020,01,14,21,43,-2.20
2020,01,14,21,44,-2.20
2020,01,14,21,45,-2.20
2020,01,14,21,46,-2.20
2020,01,14,21,47,-2.20
2020,01,14,21,48,-2.10
2020,01,14,21,49,-2.10
2020,01,14,21,50,-2.10
2020,01,14,21,51,-2.10
2020,01,14,21,52,-2.10
2020,01,14,21,53,-2.00
2020,01,14,21,54,-2.00
2020,01,14,21,55,-2.00
2020,01,14,21,56,-2.00
2020,01,14,21,57,-2.00
2020,01,14,21,58,-2.00
2020,01,14,21,59,-2.10
2020,01,14,22,00,-2.10
2020,01,14,22,01,-2.10
2020,01,14,22,02,-2.10
2020,01,14,22,03,-2.10
2020,01,14,22,04,-2.10
2020,01,14,22,05,-2.20
2020,01,14,22,06,-2.20
2020,01,14,22,07,-2.20
2020,01,14,22,08,-2.20
2020,01,14,22,09,-2.20
2020,01,14,22,10,-2.20
2020,01,14,22,11,-2.30
2020,01,14,22,12,-2.30
2020,01,14,22,13,-2.30
2020,01,14,22,14,-2.30
2020,01,14,22,15,-2.30
2020,01,14,22,16,-2.30
2020,01,14,22,17,-2.30
2020,01,14,22,18,-2.30
2020,01,14,22,19,-2.30
2020,01,14,22,20,-2.30
2020,01,14,22,21,-2.40
2020,01,14,22,22,-2.40
2020,01,14,22,23,-2.40
2020,01,14,22,24,-2.50
2020,01,14,22,25,-2.50
2020,01,14,22,26,-2.50
2020,01,14,22,27,-2.60
2020,01,14,22,28,-2.60
2020,01,14,22,29,-2.60
2020,01,14,22,30,-2.60
2020,01,14,22,31,-2.70
2020,01,14,22,32,-2.70
2020,01,14,22,33,-2.70
2020,01,14,22,34,-2.70
2020,01,14,22,35,-2.70
2020,01,14,22,36,-2.70
2020,01,14,22,37,-2.70
2020,01,14,22,38,-2.70
2020,01,14,22,39,-2.70
2020,01,14,22,40,-2.80
2020,01,14,22,41,-2.80
2020,01,14,22,42,-2.80
2020,01,14,22,43,-2.80
2020,01,14,22,44,-2.80
2020,01,14,22,45,-2.80
2020,01,14,22,46,-2.90
2020,01,14,22,47,-2.90
2020,01,14,22,48,-2.90
2020,01,14,22,49,-2.90
2020,01,14,22,50,-2.90
2020,01,14,22,51,-2.90
2020,01,14,22,52,-3.00
2020,01,14,22,53,-3.00
2020,01,14,22,54,-3.00
2020,01,14,22,55,-3.00
2020,01,14,22,56,-3.00
2020,01,14,22,57,-3.00
2020,01,14,22,58,-3.00
2020,01,14,22,59,-3.00
2020,01,14,23,00,-3.00
2020,01,14,23,01,-3.00
2020,01,14,23,02,-3.00
2020,01,14,23,03,-3.10
2020,01,14,23,04,-3.10
2020,01,14,23,05,-3.10
2020,01,14,23,06,-3.10
2020,01,14,23,07,-3.10
2020,01,14,23,08,-3.10
2020,01,14,23,09,-3.10
2020,01,14,23,10,-3.10
2020,01,14,23,11,-3.10
2020,01,14,23,12,-3.10
2020,01,14,23,13,-3.10
2020,01,14,23,14,-3.10
2020,01,14,23,15,-3.20
2020,01,14,23,16,-3.20
2020,01,14,23,17,-3.20
2020,01,14,23,18,-3.20
2020,01,14,23,19,-3.20
2020,01,14,23,20,-3.20
2020,01,14,23,21,-3.20
2020,01,14,23,22,-3.20
2020,01,14,23,23,-3.20
2020,01,14,23,24,-3.30
2020,01,14,23,25,-3.30
2020,01,14,23,26,-3.30
2020,01,14,23,27,-3.30
2020,01,14,23,28,-3.30
2020,01,14,23,29,-3.30
2020,01,14,23,30,-3.30
2020,01,14,23,31,-3.30
2020,01,14,23,32,-3.30
2020,01,14,23,33,-3.30
2020,01,14,23,34,-3.30
2020,01,14,23,35,-3.30
2020,01,14,23,36,-3.30
2020,01,14,23,37,-3.30
2020,01,14,23,38,-3.30
2020,01,14,23,39,-3.40
2020,01,14,23,40,-3.40
2020,01,14,23,41,-3.40
2020,01,14,23,42,-3.40
2020,01,14,23,43,-3.40
2020,01,14,23,44,-3.40
2020,01,14,23,45,-3.40
2020,01,14,23,46,-3.40
2020,01,14,23,47,-3.40
2020,01,14,23,48,-3.40
2020,01,14,23,49,-3.50
2020,01,14,23,50,-3.50
2020,01,14,23,51,-3.50
2020,01,14,23,52,-3.50
2020,01,14,23,53,-3.50
2020,01,14,23,54,-3.50
2020,01,14,23,55,-3.50
2020,01,14,23,56,-3.50
2020,01,14,23,57,-3.50
2020,01,14,23,58,-3.50
2020,01,14,23,59,-3.50
